Showing default

VIASAT 1, 37843

Orbit data source: Space-Track

VIASAT 1, 37843 is a payload satellite owned by ViaSat (US) in GEO that was launched on Wed, 19 Oct 2011 UTC via a PROTON-M/BRIZ-M launch vehicle from the Tyuratam Missile And Space Complex (TTMTR). Payload-class satellites include a variety of spacecraft equipped with specific instruments for various scientific and technological missions. These include communications satellites like Starlink; space stations such as the ISS; scientific satellites like the Hubble; Earth observation satellites from companies like Planet Labs, Umbra, and HawkEye 360; GPS; miniature CubeSats for education and research; and military/defense satellites.

Loading next visibility...
Identifier
37843, 2011-059A
Orbit
GEO
Country
Flag of USUS
Related business
Manufacturer
SS/Loral
Mission
Partially operational Commercial Communications
Bus & Motor
SSL-1300, R-4D
Mass
6,740 kg wet, 3,650 kg dry
Launch date (UTC)
2011-10-19 (14 years ago)
Launch vehicle
PROTON-M/BRIZ-M
Launch site
Tyuratam Missile And Space Complex (TTMTR)
Object type
Payload
Rocket body
Debris
Shape & HBR
Box + 2 Pan, 13.1 m
Radar Cross Section
50.882 m², Large (>1 m²)

Expand to show TLE details & history
Last TLE update: 11 hours ago

TLE from 11 hours ago
0 VIASAT 1
1 37843U 11059A   25355.10102602 -.00000000  00000-0  00000+0 0  9993
2 37843   0.0179 343.5156 0001907 282.5563 105.0987  1.00270890 45533
Epoch: 2025-12-21T02:25Z
TLE epoch observation values (Epoch: 2025-12-21T02:25:28.648Z)
Latitude
0.01645°
Longitude
-115.10498°
Altitude
35,788.435 km
Speed
3.075 km/s
True Right ascension
00h 44m 43s
True Declination
0° 00' 59"
Sunlit
Object was in daylight at epoch
Visualization orbit readout
Latitude
Unknown
Longitude
Unknown
Altitude
Unknown
Speed
Unknown
Apparent Right ascension
Unknown
Apparent Declination
Unknown
Sunlit
N/A
Visualization observer readout
Local Sidereal Time
12:17:33
Azimuth
Unknown
Elevation
Unknown
Doppler factor
Unknown
Orbital elements
Apogee altitude
35,795.957 km
Perigee altitude
35,779.875 km
Semi-major axis
42,166.053 km
Eccentricity
0.00019
Inclination
0.0179°
RAAN
343.5156°
Arg. of periapsis
282.5563°
True anomaly
105.1198°
Mean anomaly
105.0987°
Eccentric anomaly
105.10925°
Mean motion
0.25067 °/min
Orbital period
1,436.16 mins
BSTAR
0
Loading maneuver chart data...
Computing Atmospheric mass density...
Loading historical data...
Loading historical data...
Loading historical data...
Loading historical data...
Loading historical data...
Loading historical data...
Loading historical data...
Other satellites on launch #59 in the year 2011 (2011-10-19 UTC)

Documentation

Showing up to 5 results
|